TimeEST,TemperatureF,Dew PointF,Humidity,Sea Level PressureIn,VisibilityMPH,Wind Direction,Wind SpeedMPH,Gust SpeedMPH,PrecipitationIn,Events,Conditions,WindDirDegrees,DateUTC
12:53 AM,27.0,24.1,89,30.23,10.0,Calm,Calm,-,N/A,,Clear,0,2012-11-22 05:53:00
1:53 AM,26.1,24.1,92,30.24,10.0,NW,3.5,-,N/A,,Clear,320,2012-11-22 06:53:00
2:53 AM,27.0,25.0,92,30.23,10.0,Calm,Calm,-,N/A,,Clear,0,2012-11-22 07:53:00
3:53 AM,26.1,24.1,92,30.23,10.0,Calm,Calm,-,N/A,,Clear,0,2012-11-22 08:53:00
4:53 AM,25.0,23.0,92,30.24,10.0,Calm,Calm,-,N/A,,Clear,0,2012-11-22 09:53:00
5:53 AM,26.1,23.0,88,30.24,10.0,Calm,Calm,-,N/A,,Clear,0,2012-11-22 10:53:00
6:53 AM,25.0,23.0,92,30.25,10.0,Calm,Calm,-,N/A,,Clear,0,2012-11-22 11:53:00
7:53 AM,28.0,25.0,88,30.26,10.0,Calm,Calm,-,N/A,,Clear,0,2012-11-22 12:53:00
8:53 AM,37.9,32.0,79,30.27,10.0,NNW,4.6,-,0.01,,Clear,330,2012-11-22 13:53:00
9:53 AM,48.9,37.0,64,30.27,10.0,Calm,Calm,-,N/A,,Clear,0,2012-11-22 14:53:00
10:53 AM,52.0,39.0,61,30.25,10.0,NE,4.6,-,N/A,,Clear,50,2012-11-22 15:53:00
11:53 AM,54.0,37.9,55,30.23,10.0,Calm,Calm,-,N/A,,Clear,0,2012-11-22 16:53:00
12:53 PM,55.9,37.9,51,30.21,10.0,Calm,Calm,-,N/A,,Clear,0,2012-11-22 17:53:00
1:53 PM,57.0,37.9,49,30.19,10.0,Variable,3.5,-,N/A,,Clear,0,2012-11-22 18:53:00
2:53 PM,57.0,37.0,47,30.17,10.0,Calm,Calm,-,N/A,,Clear,0,2012-11-22 19:53:00
3:53 PM,55.0,36.0,49,30.17,10.0,Calm,Calm,-,N/A,,Clear,0,2012-11-22 20:53:00
4:53 PM,48.0,37.0,66,30.17,10.0,Calm,Calm,-,N/A,,Clear,0,2012-11-22 21:53:00
5:53 PM,43.0,36.0,76,30.18,10.0,Calm,Calm,-,N/A,,Clear,0,2012-11-22 22:53:00
6:53 PM,39.9,35.1,83,30.18,10.0,Calm,Calm,-,N/A,,Clear,0,2012-11-22 23:53:00
7:53 PM,37.0,33.1,86,30.17,10.0,Calm,Calm,-,N/A,,Clear,0,2012-11-23 00:53:00
8:53 PM,33.8,32.0,93,30.16,10.0,Calm,Calm,-,N/A,,Clear,0,2012-11-23 01:53:00
9:53 PM,32.0,30.9,96,30.16,10.0,Calm,Calm,-,N/A,,Clear,0,2012-11-23 02:53:00
10:53 PM,30.9,30.0,96,30.15,10.0,Calm,Calm,-,N/A,,Clear,0,2012-11-23 03:53:00
11:53 PM,30.9,28.9,92,30.15,10.0,Calm,Calm,-,N/A,,Clear,0,2012-11-23 04:53:00